Location: Balaclava NSW 2575, Australia
(34.4510°S, 150.4953°E)
Time: 23:43:07
(UTC+10:00)

XW-2C - Pass Details

Date: 02 August 2021
Orbit: 505 x 524 km, 97.5° (Epoch: 26 September)

Event Time Altitude Azimuth Distance (km) Brightness Sun altitude
Rises 06:02:22 0° 340° (NNW) 2,650 ? -10.4°
Reaches altitude 10° 06:04:56 10° 321° (NW) 1,772 ? -9.8°
Maximum altitude 06:07:41 19° 275° (W) 1,313 ? -9.3°
Drops below altitude 10° 06:10:29 10° 229° (SW) 1,791 ? -8.7°
Enters shadow 06:11:14 - 222° (SW) 2,028 ? -8.6°
